Weather Service Report


616 
ASUS44 KLZK 240305
RWRLZK

WEATHER ROUNDUP FOR ARKANSAS
NATIONAL WEATHER SERVICE LITTLE ROCK AR
900 PM CST SUN NOV 23 2014

NOTE: "FAIR" INDICATES FEW OR NO CLOUDS BELOW 12,000 FEET WITH NO
SIGNIFICANT WEATHER AND/OR OBSTRUCTIONS TO VISIBILITY.

ARZ001-003-010-029-240400-
NORTHWEST ARKANSAS
  
CITY           SKY/WX    TMP DP  RH WIND       PRES   REMARKS
FAYETTEVILLE   LGT RAIN  48  46  93 NW26G33   29.40R                  
FORT SMITH     PTCLDY    57  47  69 W24G32    29.41R                  
HARRISON       CLOUDY    58  54  86 SW14G23   29.33S                  
BENTONVILLE    CLOUDY    46  43  87 NW14G29   29.42R                  
ROGERS         LGT RAIN  47  45  93 NW15G26   29.40R                  
SILOAM SPGS    CLOUDY    46  37  71 NW23G32   29.46R                  
HIGHFILL       LGT RAIN  47 N/A N/A NW17G29   29.41R                  
SPRINGDALE     CLOUDY    50  46  87 W18G32    29.41R                  
$$

ARZ004-005-016-240400-
NORTH CENTRAL ARKANSAS
  
CITY           SKY/WX    TMP DP  RH WIND       PRES   REMARKS
BATESVILLE     CLOUDY    63  57  82 SW14G20   29.35F                  
FLIPPIN        PTCLDY    55  48  76 S5        29.31F                  
MTN HOME       LGT RAIN  56  54  93 SW9G21    29.31F                  
$$

ARZ040-041-240400-
WEST CENTRAL ARKANSAS
  
CITY           SKY/WX    TMP DP  RH WIND       PRES   REMARKS
MENA           PTCLDY    61  50  67 W7        29.45R                  
MOUNT IDA      CLEAR     62  53  72 VRB6      29.38R                  
$$

ARZ009-017-025-026-028-240400-
NORTHEAST ARKANSAS
  
CITY           SKY/WX    TMP DP  RH WIND       PRES   REMARKS
CORNING        MOCLDY    59  59 100 S14       29.36F                  
JONESBORO      CLOUDY    60  59  96 S14       29.37F                  
NEWPORT        CLOUDY    61  60  96 S15       29.38F                  
WALNUT RIDGE   CLOUDY    59  55  88 S14G20    29.34F                  
BLYTHEVILLE    CLOUDY    66  58  75 S14       29.40F                  
$$

ARZ022-023-033-042-044-240400-
CENTRAL ARKANSAS
  
CITY           SKY/WX    TMP DP  RH WIND       PRES   REMARKS
LITTLE ROCK    PTCLDY    62  57  83 S10       29.40F                  
N LITTLE ROCK  PTCLDY    61  60  96 S10G16    29.40F                  
JACKSONVILLE   CLEAR     60  60  99 S5        29.39F                  
SEARCY         CLOUDY    61  60  97 S10       29.39F                  
HOT SPRINGS    CLEAR     63  55  75 SW12      29.40F                  
RUSSELLVILLE   FOG       55  54  96 CALM      29.35F VSB 1            
CLINTON        CLOUDY    59  59 100 SW5       29.36F                  
$$

ARZ036-240400-
EAST ARKANSAS
  
CITY           SKY/WX    TMP DP  RH WIND       PRES   REMARKS
WEST MEMPHIS   PTCLDY    61  60  97 S15       29.43S                  
$$

ARZ050-053-066-070-073-240400-
SOUTHWEST ARKANSAS
  
CITY           SKY/WX    TMP DP  RH WIND       PRES   REMARKS
ARKADELPHIA    FAIR      59  58  96 SW7       29.43S                  
CAMDEN         CLEAR     61  55  82 NE8       29.46S                  
TEXARKANA      CLEAR     63  45  51 W15G26    29.51R                  
EL DORADO      CLEAR     62  55  77 S14       29.49R                  
DE QUEEN       CLEAR     59  45  59 W13       29.46R                  
$$

ARZ056-057-069-240400-
SOUTHEAST ARKANSAS
  
CITY           SKY/WX    TMP DP  RH WIND       PRES   REMARKS
PINE BLUFF     CLEAR     61  57  87 S14       29.44S                  
STUTTGART      CLEAR     61  57  88 S13       29.43S                  
MONTICELLO     CLEAR     63  58  83 S14G25    29.48R                  

$$



Return to Home page


Western Regional Climate Center, wrcc@dri.edu